Springfield, MO

2:28 PM CDT on June 27, 2017 (GMT -0500)
Springfield-Branson Regional

Weather History for KSGF - April, 2014

Change the Weather History Date:

Thursday, April 17, 2014

  Actual Average Record
Temperature  
Mean Temperature 52 °F 56 °F  
Max Temperature 64 °F 68 °F 87 °F (1937)
Min Temperature 40 °F 45 °F 27 °F (1921)
Degree Days  
Heating Degree Days 13 10  
Month to date heating degree days 204 202  
Since 1 July heating degree days 4840 4376  
Cooling Degree Days 0 1  
Month to date cooling degree days 7 10  
Year to date cooling degree days 7 13  
Growing Degree Days 2 (Base 50)    
Moisture  
Dew Point 35 °F    
Average Humidity 55    
Maximum Humidity 70    
Minimum Humidity 39    
Precipitation  
Precipitation 0.00 in 0.15 in 1.23 in (1901)
Month to date precipitation 0.84 2.23  
Year to date precipitation 4.96 10.84  
Snow  
Snow 0.00 in - - ()
Month to date snowfall T  
Since 1 July snowfall 32.2  
Snow Depth 0.00 in    
Sea Level Pressure  
Sea Level Pressure 30.20 in    
Wind  
Wind Speed 8 mph (South)    
Max Wind Speed 15 mph    
Max Gust Speed 18 mph    
Visibility 10 miles    
Events      
T = Trace of Precipitation, MM = Missing Value Source: NWS Daily Summary

Daily Weather History Graph

Daily Weather History Graph

Search for Another Location

Airport or City:

Trip Planner

Search our weather history database for the weather conditions in past years. The results will help you decide how hot, cold, wet, or windy it might be!

Date:

Astronomy

Apr. 17, 2014 Rise Set
Actual Time 6:36 AM CDT 7:50 PM CDT
Civil Twilight 6:09 AM CDT 8:17 PM CDT
Nautical Twilight 5:37 AM CDT 8:49 PM CDT
Astronomical Twilight 5:03 AM CDT 9:23 PM CDT
Moon 10:34 PM CDT (4/17) 8:10 AM CDT (4/17)
Length of Visible Light 14h 08m
Length of Day
13h 14m
Waning Gibbous, 93% of the Moon is Illuminated
Apr 17
Waning Gibbous
Apr 22
Last Quarter
Apr 29
New
May 6
First Quarter
May 14
Full

Hourly Weather History & Observations

Time (CDT) Temp. Windchill Dew Point Humidity Pressure Visibility Wind Dir Wind Speed Gust Speed Precip Events Conditions
12:52 AM 46.9 °F - 30.0 °F 52% 30.09 in 10.0 mi SSE 12.7 mph - N/A   Clear
1:52 AM 46.0 °F 39.9 °F 30.0 °F 54% 30.10 in 10.0 mi SSE 13.8 mph - N/A   Clear
2:52 AM 45.0 °F 39.3 °F 30.0 °F 56% 30.12 in 10.0 mi SSE 11.5 mph - N/A   Clear
3:52 AM 44.1 °F 37.7 °F 30.0 °F 58% 30.13 in 10.0 mi SSE 12.7 mph - N/A   Clear
4:52 AM 43.0 °F 37.7 °F 30.0 °F 60% 30.14 in 10.0 mi SSE 9.2 mph - N/A   Clear
5:52 AM 39.9 °F 35.1 °F 30.9 °F 70% 30.16 in 10.0 mi SSE 6.9 mph - N/A   Clear
6:52 AM 42.1 °F 36.6 °F 30.9 °F 65% 30.17 in 10.0 mi SSE 9.2 mph - N/A   Clear
7:52 AM 45.0 °F 41.8 °F 33.1 °F 63% 30.19 in 10.0 mi SSE 5.8 mph - N/A   Clear
8:52 AM 48.0 °F - 35.1 °F 61% 30.22 in 10.0 mi South 5.8 mph - N/A   Clear
9:52 AM 52.0 °F - 34.0 °F 50% 30.24 in 10.0 mi South 9.2 mph - N/A   Clear
10:52 AM 55.9 °F - 34.0 °F 44% 30.25 in 10.0 mi SW 10.4 mph - N/A   Clear
11:52 AM 57.2 °F - 35.6 °F 44% 30.24 in 10.0 mi SSW 4.6 mph - N/A   Clear
12:19 PM 59.0 °F - 35.1 °F 41% 30.24 in 2.5 mi SW 5.8 mph - N/A   Haze
12:28 PM 60.1 °F - 35.1 °F 39% 30.23 in 10.0 mi Calm Calm - N/A   Clear
12:52 PM 61.0 °F - 35.1 °F 38% 30.22 in 10.0 mi Calm Calm - N/A   Clear
1:52 PM 63.0 °F - 37.0 °F 38% 30.22 in 10.0 mi Calm Calm - N/A   Clear
2:52 PM 61.0 °F - 37.9 °F 42% 30.21 in 10.0 mi NW 10.4 mph - N/A   Clear
3:52 PM 63.0 °F - 39.0 °F 41% 30.21 in 10.0 mi NW 8.1 mph - N/A   Clear
4:52 PM 62.1 °F - 39.9 °F 44% 30.22 in 10.0 mi NNW 10.4 mph - N/A   Clear
5:52 PM 60.1 °F - 39.9 °F 47% 30.22 in 10.0 mi NNW 11.5 mph - N/A   Clear
6:52 PM 57.9 °F - 41.0 °F 53% 30.21 in 10.0 mi NNW 13.8 mph - N/A   Mostly Cloudy
7:52 PM 55.9 °F - 41.0 °F 57% 30.22 in 10.0 mi North 8.1 mph - N/A   Mostly Cloudy
8:52 PM 53.1 °F - 39.9 °F 61% 30.24 in 10.0 mi North 10.4 mph - N/A   Overcast
9:52 PM 51.1 °F - 39.9 °F 66% 30.25 in 10.0 mi NNE 8.1 mph - N/A   Mostly Cloudy
10:52 PM 51.1 °F - 39.9 °F 66% 30.24 in 10.0 mi NNE 9.2 mph - N/A   Overcast
11:52 PM 50.0 °F - 39.9 °F 68% 30.25 in 10.0 mi NE 6.9 mph - N/A   Overcast